Tracking 35274 objects as of 11-Sep-2026
HD Live streaming from Space Station
objects crossing your sky now

TELSTAR 11 (ORION 1)

Track TELSTAR 11 (ORION 1) now!
TELSTAR 11 (ORION 1) is classified as:


NORAD ID: 23413
Int'l Code: 1994-079A
Launch date: November 29, 1994
Source: United States (US)
Launch site: AIR FORCE EASTERN TEST RANGE (AFETR)

34 Ku-band; Europe, United States to Rockies, parts of Canada and Mexico; broadcast, business, high-speed Internet.
Your satellite tracking list
Your tracking list is empty




NASA's NSSDC Master Catalog

Two Line Element Set (TLE):
1 23413U 94079A   26253.48250272 -.00000080  00000-0  00000+0 0  9998
2 23413  13.9158  16.1116 0021127  50.8994 305.9409  0.98580534114790
Source of the keplerian elements: AFSPC